Weather in Srednekhorskij

Russia / Khabarovsk Krai     47°40′41″N   136°13′44″E
temp.,
°C
wind,
m/s
gust,
m/s
humid.,
%
clouds,
%
prec.,
mm/h
press.,
hPa
HPBL,
m
27 february, sat
sat2701:00−24sse1110089 0.0 103520
04:00−24ese1210090 0.0 103621
07:00−25ese119959 0.0 103721
10:00−19se129443 0.0 1035149
13:00−11s238754 0.0 1033359
16:00−9s238575 0.0 1028446
19:00−11se129199 0.0 102728
22:00−11se229399 0.0 102440
28 february, sun
sun2801:00−9sse2985100 0.0 1021299
04:00−8s31593100 0.1 1019720
07:00−7ssw41396100 2.9 1018790
10:00−5sw41096100 5.2 1017745
13:00−3w5995100 1.6 1018866
16:00−6w4988100 1.8 1019872
19:00−12wsw3791100 0.0 1022478
22:00−14sw2794100 0.0 1025376
1 march, mon
mon101:00−17sw2297100 0.0 102636
04:00−22sw1210094 0.0 102820
07:00−24ssw22100100 0.1 103032
10:00−21ssw249799 0.1 1031348
13:00−17wsw478182 0.0 1030882
16:00−17w478242 0.0 1031952
19:00−22wsw229366 0.0 103320
22:00−26sse119334 0.0 103420
2 march, tue
tue201:00−27ese11968 0.0 103421
04:00−27ese119536 0.0 103321
07:00−27ese119699 0.0 103422
10:00−20s119499 0.0 1032174
13:00−15wnw237897 0.0 1030938
16:00−16nw347869 0.0 1029912
19:00−22nnw229424 0.0 103120
22:00−25ene119619 0.0 103320
3 march, wed
wed301:00−27e11940 0.0 103219
04:00−28ese11950 0.0 103119
07:00−29ese11950 0.0 103220
10:00−21se12890 0.0 1030149
13:00−12se12800 0.0 1026366
16:00−10s257930 0.0 1022556
19:00−12se1287100 0.0 102123
22:00−11se2591100 0.0 1020233